When you browse on this site, cookies collect data to enhance your experience and personalize the content and advertising you see.
Visit our Privacy Policy to learn more. By continuing to use the site, you agree to this use of cookies and data.
  • In United Kingdom
  • List of Countries
  • For 7 days
  • Water Temperature
  • Satellite Maps
  • Weather Map
  • Weather Widgets
  • user-avatar
    Login

    Hourly Weather Impfondo

    Today, 18 April, Thursday

    Time Temperature Precipitation Wind Pressure Humidity
    00:00 +27°C° 0.2 mm 0 mps 729 mmHg 67%
    01:00 +28°C° 0 mm 1 mps 729 mmHg 73%
    02:00 +27°C° 0.3 mm 1 mps 729 mmHg 78%
    03:00 +26°C° 0.3 mm 1 mps 729 mmHg 83%
    04:00 +24°C° 0.3 mm 0 mps 729 mmHg 88%
    05:00 +24°C° 0 mm 0 mps 729 mmHg 86%
    06:00 +25°C° 0 mm 0 mps 730 mmHg 85%
    07:00 +26°C° 0 mm 0 mps 730 mmHg 82%
    08:00 +30°C° 0 mm 1 mps 730 mmHg 71%
    09:00 +33°C° 0 mm 1 mps 731 mmHg 60%
    10:00 +35°C° 0 mm 1 mps 731 mmHg 49%
    11:00 +36°C° 0 mm 1 mps 730 mmHg 47%
    12:00 +37°C° 0 mm 1 mps 729 mmHg 44%
    13:00 +39°C° 0 mm 1 mps 729 mmHg 41%
    14:00 +39°C° 0 mm 1 mps 728 mmHg 40%
    15:00 +39°C° 0 mm 1 mps 728 mmHg 40%
    16:00 +39°C° 0 mm 1 mps 728 mmHg 39%
    17:00 +35°C° 0.9 mm 1 mps 727 mmHg 49%
    18:00 +34°C° 0.9 mm 2 mps 727 mmHg 59%
    19:00 +30°C° 0.9 mm 2 mps 727 mmHg 69%
    20:00 +29°C° 4.3 mm 2 mps 728 mmHg 77%
    21:00 +28°C° 4.3 mm 1 mps 729 mmHg 85%
    22:00 +27°C° 4.3 mm 1 mps 729 mmHg 94%
    23:00 +27°C° 2.5 mm 1 mps 729 mmHg 94%

    Tomorrow, 19 April, Friday

    Time Temperature Precipitation Wind Pressure Humidity
    00:00 +26°C° 2.5 mm 1 mps 730 mmHg 94%
    01:00 +26°C° 2.5 mm 2 mps 730 mmHg 94%
    02:00 +26°C° 0.7 mm 1 mps 729 mmHg 95%
    03:00 +25°C° 0.7 mm 1 mps 729 mmHg 96%
    04:00 +25°C° 0.7 mm 1 mps 729 mmHg 97%
    05:00 +25°C° 1.1 mm 1 mps 729 mmHg 96%
    06:00 +26°C° 1.1 mm 1 mps 730 mmHg 96%
    07:00 +26°C° 1.1 mm 1 mps 731 mmHg 95%
    08:00 +27°C° 1.2 mm 1 mps 731 mmHg 89%
    09:00 +29°C° 1.2 mm 1 mps 732 mmHg 82%
    10:00 +30°C° 1.2 mm 1 mps 732 mmHg 76%
    11:00 +30°C° 2 mm 1 mps 732 mmHg 79%
    12:00 +30°C° 2 mm 1 mps 731 mmHg 82%
    13:00 +29°C° 2 mm 1 mps 731 mmHg 86%
    14:00 +29°C° 0.1 mm 1 mps 730 mmHg 80%
    15:00 +30°C° 0.1 mm 1 mps 730 mmHg 75%
    16:00 +30°C° 0.1 mm 1 mps 729 mmHg 69%
    17:00 +29°C° 0 mm 1 mps 729 mmHg 75%
    18:00 +28°C° 0 mm 1 mps 729 mmHg 81%
    19:00 +27°C° 0 mm 1 mps 728 mmHg 87%
    20:00 +26°C° 0 mm 1 mps 729 mmHg 90%
    21:00 +23°C° 0 mm 0 mps 730 mmHg 93%
    22:00 +23°C° 0 mm 0 mps 730 mmHg 96%
    23:00 +23°C° 0 mm 0 mps 730 mmHg 96%

    Day after tomorrow, 20 April, Saturday

    Time Temperature Precipitation Wind Pressure Humidity
    00:00 +23°C° 0 mm 0 mps 730 mmHg 95%
    01:00 +23°C° 0 mm 0 mps 730 mmHg 95%
    02:00 +23°C° 0 mm 0 mps 730 mmHg 94%
    03:00 +23°C° 0 mm 0 mps 730 mmHg 94%
    04:00 +22°C° 0 mm 0 mps 730 mmHg 94%
    05:00 +25°C° 0.1 mm 1 mps 730 mmHg 92%
    06:00 +25°C° 0.1 mm 1 mps 731 mmHg 90%
    07:00 +26°C° 0.1 mm 2 mps 732 mmHg 87%
    08:00 +26°C° 0.5 mm 1 mps 732 mmHg 88%
    09:00 +26°C° 0.5 mm 1 mps 732 mmHg 89%
    10:00 +24°C° 0.5 mm 0 mps 733 mmHg 90%
    11:00 +29°C° 0 mm 1 mps 732 mmHg 75%
    12:00 +33°C° 0 mm 1 mps 731 mmHg 60%
    13:00 +36°C° 0 mm 1 mps 730 mmHg 44%
    14:00 +34°C° 0 mm 1 mps 729 mmHg 50%
    15:00 +33°C° 0 mm 1 mps 728 mmHg 56%
    16:00 +29°C° 0 mm 0 mps 727 mmHg 61%
    17:00 +28°C° 0 mm 0 mps 728 mmHg 65%
    18:00 +27°C° 0 mm 0 mps 728 mmHg 69%
    19:00 +26°C° 0 mm 0 mps 729 mmHg 73%
    20:00 +25°C° 0 mm 0 mps 729 mmHg 76%
    21:00 +25°C° 0 mm 0 mps 729 mmHg 78%
    22:00 +24°C° 0 mm 0 mps 730 mmHg 80%
    23:00 +24°C° 0 mm 0 mps 730 mmHg 83%

    21 April, Sunday

    Time Temperature Precipitation Wind Pressure Humidity
    00:00 +23°C° 0 mm 0 mps 729 mmHg 86%
    01:00 +23°C° 0 mm 0 mps 729 mmHg 89%
    02:00 +23°C° 0.4 mm 0 mps 729 mmHg 92%
    03:00 +22°C° 0.4 mm 0 mps 729 mmHg 94%
    04:00 +22°C° 0.4 mm 0 mps 729 mmHg 96%
    05:00 +23°C° 0 mm 0 mps 730 mmHg 95%
    06:00 +23°C° 0 mm 0 mps 730 mmHg 94%
    07:00 +24°C° 0 mm 0 mps 731 mmHg 92%
    08:00 +29°C° 0 mm 1 mps 731 mmHg 78%
    09:00 +32°C° 0 mm 1 mps 731 mmHg 65%
    10:00 +35°C° 0 mm 1 mps 731 mmHg 51%
    11:00 +36°C° 0 mm 1 mps 730 mmHg 45%
    12:00 +39°C° 0 mm 1 mps 729 mmHg 39%
    13:00 +40°C° 0 mm 1 mps 728 mmHg 34%
    14:00 +39°C° 0 mm 1 mps 727 mmHg 37%
    15:00 +37°C° 0 mm 1 mps 727 mmHg 41%
    16:00 +36°C° 0 mm 1 mps 726 mmHg 45%
    17:00 +34°C° 0 mm 1 mps 727 mmHg 49%
    18:00 +32°C° 0 mm 1 mps 727 mmHg 54%
    19:00 +30°C° 0 mm 1 mps 728 mmHg 59%
    20:00 +29°C° 0.2 mm 1 mps 728 mmHg 65%
    21:00 +28°C° 0.2 mm 1 mps 728 mmHg 70%
    22:00 +27°C° 0.2 mm 1 mps 729 mmHg 76%
    23:00 +27°C° 0.2 mm 1 mps 728 mmHg 80%

    22 April, Monday

    Time Temperature Precipitation Wind Pressure Humidity
    00:00 +27°C° 0.2 mm 1 mps 728 mmHg 84%
    01:00 +26°C° 0.2 mm 1 mps 728 mmHg 88%
    02:00 +26°C° 0 mm 1 mps 728 mmHg 87%
    03:00 +26°C° 0 mm 1 mps 728 mmHg 86%
    04:00 +24°C° 0 mm 0 mps 728 mmHg 85%
    05:00 +25°C° 0 mm 0 mps 728 mmHg 82%
    06:00 +25°C° 0 mm 0 mps 729 mmHg 79%
    07:00 +28°C° 0 mm 1 mps 729 mmHg 76%
    08:00 +31°C° 0 mm 1 mps 729 mmHg 64%
    09:00 +34°C° 0 mm 1 mps 729 mmHg 52%
    10:00 +37°C° 0 mm 1 mps 729 mmHg 40%
    11:00 +39°C° 0 mm 1 mps 729 mmHg 36%
    12:00 +41°C° 0 mm 1 mps 728 mmHg 32%
    13:00 +42°C° 0 mm 1 mps 727 mmHg 28%
    14:00 +41°C° 0 mm 1 mps 726 mmHg 33%
    15:00 +39°C° 0 mm 1 mps 726 mmHg 38%
    16:00 +34°C° 0 mm 0 mps 725 mmHg 43%
    17:00 +32°C° 0 mm 0 mps 726 mmHg 46%
    18:00 +31°C° 0 mm 0 mps 726 mmHg 50%
    19:00 +29°C° 0 mm 0 mps 727 mmHg 53%
    20:00 +28°C° 0 mm 0 mps 727 mmHg 54%
    21:00 +28°C° 0 mm 0 mps 727 mmHg 55%
    22:00 +27°C° 0 mm 0 mps 728 mmHg 56%
    23:00 +27°C° 0 mm 0 mps 727 mmHg 57%

    23 April, Tuesday

    Time Temperature Precipitation Wind Pressure Humidity
    00:00 +27°C° 0 mm 0 mps 727 mmHg 57%
    01:00 +29°C° 0 mm 1 mps 727 mmHg 58%
    02:00 +28°C° 0.2 mm 1 mps 727 mmHg 65%
    03:00 +26°C° 0.2 mm 1 mps 727 mmHg 73%
    04:00 +25°C° 0.2 mm 1 mps 727 mmHg 80%
    05:00 +26°C° 0.3 mm 1 mps 728 mmHg 82%
    06:00 +26°C° 0.3 mm 1 mps 729 mmHg 84%
    07:00 +26°C° 0.3 mm 1 mps 729 mmHg 86%
    08:00 +30°C° 0 mm 1 mps 729 mmHg 71%
    09:00 +34°C° 0 mm 1 mps 730 mmHg 56%
    10:00 +37°C° 0 mm 1 mps 730 mmHg 41%
    11:00 +40°C° 0 mm 1 mps 729 mmHg 37%
    12:00 +41°C° 0 mm 1 mps 728 mmHg 33%
    13:00 +43°C° 0 mm 1 mps 727 mmHg 28%
    14:00 +41°C° 0 mm 1 mps 727 mmHg 32%
    15:00 +37°C° 0 mm 0 mps 726 mmHg 36%
    16:00 +35°C° 0 mm 0 mps 726 mmHg 40%
    17:00 +34°C° 0 mm 0 mps 726 mmHg 42%
    18:00 +32°C° 0 mm 0 mps 727 mmHg 45%
    19:00 +31°C° 0 mm 0 mps 727 mmHg 47%
    20:00 +31°C° 0 mm 0 mps 727 mmHg 48%
    21:00 +30°C° 0 mm 0 mps 728 mmHg 50%
    22:00 +30°C° 0 mm 0 mps 728 mmHg 51%
    23:00 +29°C° 0 mm 0 mps 728 mmHg 54%
    Show more